Regional Weather Roundup
Issued by NWS

Home | Current Version | Previous Version | Graphics & Text | Print | Product List | Glossary On
Versions: 1 2 3 4 5 6 7 8 9 10 11 12 13 14 15 16 17 18 19 20 21 22 23 24 25 26 27 28 29 30 31 32 33 34 35 36 37 38 39 40 41 42 43 44 45 46 47 48 49 50
000
ASUS43 KDMX 061207
RWRIA

WEATHER ROUNDUP FOR IOWA
NATIONAL WEATHER SERVICE DES MOINES IA
600 AM CST FRI MAR 06 2015

NOTE: "FAIR" INDICATES FEW OR NO CLOUDS BELOW 12,000 FEET WITH NO
SIGNIFICANT WEATHER AND/OR OBSTRUCTIONS TO VISIBILITY.

* - THESE STATIONS ARE NOT NWS STATIONS...THUS NOT UNDER NWS
QUALITY CONTROL.  THEY ALSO DO NOT REPORT WEATHER SUCH
AS PRECIPITATION OR FOG.

IAZ001>003-012>014-020>022-031>034-043>046-061300-
   NORTHWEST IOWA

CITY           SKY/WX    TMP DP  RH WIND       PRES   REMARKS
CARROLL *      CLEAR     23  14  68 SW16      30.14S WCI  10
CHEROKEE *       N/A     16  10  78 S6        30.13F WCI   7
DENISON *      CLEAR     21  14  73 SW7G14    30.15R WCI  13
LE MARS *      PTCLDY    18  12  79 S5        30.14S WCI  11
ORANGE CITY *  CLEAR     18  10  73 CALM      30.11S
SHELDON *      MOCLDY    19  10  68 SW9       30.10S WCI   9
SIOUX CITY     CLEAR     15   8  73 E6        30.15S WCI   6
6HR MIN TEMP:  14; 6HR MAX TEMP:  27;

SPENCER        PTCLDY    16   8  71 SW7       30.12S WCI   6
6HR MIN TEMP:  13; 6HR MAX TEMP:  18;

STORM LAKE *   CLEAR     19  12  73 SW14      30.12S WCI   6
$$

IAZ055>058-069>071-079>083-090>094-061300-
   SOUTHWEST IOWA

CITY           SKY/WX    TMP DP  RH WIND       PRES   REMARKS
ATLANTIC *     CLEAR     21  14  73 S12       30.18F WCI   9
AUDUBON *      CLEAR     21  14  73 S10       30.17S WCI  10
CLARINDA *     CLEAR     21  16  79 S8        30.24F WCI  12
COUNCIL BLFS * CLEAR     25  16  68 SW8       30.17R WCI  16
CRESTON *      CLEAR     19  12  73 S16       30.21F WCI   5
HARLAN  *      CLEAR     19  14  79 S9        30.21S WCI   9
LAMONI         CLEAR     20  11  68 S13       30.24F WCI   7
6HR MIN TEMP:  18; 6HR MAX TEMP:  20;

RED OAK *      CLOUDY    21  16  79 S6        30.21S WCI  14
SHENANDOAH *   CLEAR     23  18  80 S6        30.22F WCI  16
$$

IAZ047>049-059>061-072>074-084-061300-
   CENTRAL IOWA

CITY           SKY/WX    TMP DP  RH WIND       PRES   REMARKS
AMES           CLEAR     17   9  70 S8        30.20F WCI   7
6HR MIN TEMP:   9; 6HR MAX TEMP:  19;

ANKENY *       PTCLDY    23  12  63 S9        30.22F WCI  13
CHARITON *     MOCLDY    21  10  63 S17G24    30.23F WCI   7
DES MOINES     PTCLDY    23  12  62 S13       30.22S WCI  11
6HR MIN TEMP:  16; 6HR MAX TEMP:  24;

GRINNELL*      MOCLDY    16  10  79 S15       30.23F WCI   1
KNOXVILLE *    CLOUDY    23  10  58 S15       30.21F WCI  10
MARSHALLTOWN   CLOUDY    16   8  71 S10       30.21F WCI   4
6HR MIN TEMP:   4; 6HR MAX TEMP:  17;

PELLA *        CLEAR     22  14  74 S10       30.26F WCI  11
PERRY *          N/A     21  16  79 S13       30.18F WCI   9
$$

IAZ004>006-015-016-023>025-035-036-061300-
   NORTH CENTRAL IOWA

CITY           SKY/WX    TMP DP  RH WIND       PRES   REMARKS
ALGONA *       CLEAR     16 N/A N/A S13       30.13S WCI   2
CLARION *      CLEAR     14   9  79 S14       30.16S WCI  -1
ESTHERVILLE    PTCLDY    13   7  77 S10       30.09F WCI   0
6HR MIN TEMP:  11; 6HR MAX TEMP:  13;

FORT DODGE *     N/A     18   9  68 S9        30.16F WCI   6
MASON CITY     CLEAR     12   5  73 S9        30.16F WCI   0
6HR MIN TEMP:   0; 6HR MAX TEMP:  12;

FOREST CITY *  CLEAR     14   7  73 S8        30.14F WCI   3
IOWA FALLS *     N/A     16   9  73 S12       30.19S WCI   3
$$

IAZ007>011-017>019-026>030-037>042-050>054-066-061300-
   NORTHEAST IOWA

CITY           SKY/WX    TMP DP  RH WIND       PRES   REMARKS
CEDAR RAPIDS   CLOUDY     9   3  77 S15       30.27F WCI  -8
6HR MIN TEMP:   0; 6HR MAX TEMP:   9;

CHARLES CITY * MOCLDY    12   5  73 S16       30.19S WCI  -4
CLINTON *        N/A      1  -4  78 S12       30.40F WCI -15
DECORAH *      CLOUDY    10   1  67 S14G21    30.18F WCI  -5
DUBUQUE        PTCLDY     3  -3  76 S18       30.29F WCI -17
6HR MIN TEMP:  -6; 6HR MAX TEMP:   3;

MONTICELLO *   CLOUDY     5  -2  72 SE9       30.32F WCI  -9
OELWEIN *      CLOUDY     9   1  72 S18       30.22F WCI -10
WATERLOO       CLOUDY    11   5  77 S9        30.23F WCI  -2
6HR MIN TEMP:   2; 6HR MAX TEMP:  11;

$$

IAZ064-065-067-068-078-061300-
   EAST CENTRAL IOWA

CITY           SKY/WX    TMP DP  RH WIND       PRES   REMARKS
DAVENPORT      CLEAR      8  -1  66 S14       30.38F WCI  -8
6HR MIN TEMP:  -2; 6HR MAX TEMP:   8;

IOWA CITY      MOCLDY     8   2  76 SE8       30.35F WCI  -4
6HR MIN TEMP:   2; 6HR MAX TEMP:   8;

MT. PLEASANT * CLEAR     11   4  72 S14       30.36F WCI  -5
MUSCATINE *    MOCLDY     9   1  72 S10       30.39F WCI  -6
QUAD CITIES    CLEAR      8  -1  66 S7        30.40F WCI  -3
6HR MIN TEMP:   0; 6HR MAX TEMP:   9;

$$

IAZ062-063-075>077-085>089-095>099-061300-
   SOUTHEAST IOWA

CITY           SKY/WX    TMP DP  RH WIND       PRES   REMARKS
BURLINGTON     CLEAR     10   2  69 S12       30.39F WCI  -5
6HR MIN TEMP:   1; 6HR MAX TEMP:  10;

FAIRFIELD *    MOCLDY    12   5  73 S14       30.32F WCI  -3
FORT MADISON * CLEAR      9   3  78 S13       30.39F WCI  -7
KEOKUK *       CLEAR     16   7  67 S12G17    30.39F WCI   3
OSKALOOSA *    MOCLDY    16  10  78 S15       30.27F WCI   1
CENTERVILLE *  MOCLDY    21  10  63 S13       30.29F WCI   9
OTTUMWA        CLOUDY    16   8  71 S17       30.28F WCI   0
6HR MIN TEMP:  11; 6HR MAX TEMP:  16;

WASHINGTON *   CLOUDY    12   9  85 S14       30.33F WCI  -3
$$

ABBREVIATIONS USED IN REMARKS
   TC - TEMPERATURES IN CELSIUS
  WCI - WIND CHILL INDEX
   HX - HEAT INDEX
  VSB - VISIBILITY
$$



USA.gov is the U.S. government's official web portal to all federal, state and local government web resources and services.